Location: Bauersach School (historical)
(38.0926°N, 89.4806°W)
Time: 03:27:03
(UTC+00:00)

Cosmos 2266 Rocket - Pass Details

Date: 11 December 2025
Orbit: 933 x 1007 km, 82.9° (Epoch: 21 January)

Event Time Altitude Azimuth Distance (km) Brightness Sun altitude
Rises 22:54:37 0° 359° (N) 3,643 6.7 -3.7°
Reaches altitude 10° 22:57:15 10° 5° (N) 2,683 6.0 -4.1°
Maximum altitude 23:03:08 48° 79° (E) 1,207 4.2 -5.2°
Drops below altitude 10° 23:08:55 10° 153° (SSE) 2,635 6.3 -6.2°
Sets 23:11:28 0° 159° (SSE) 3,572 7.0 -6.7°
